Regional Weather Roundup
Issued by NWS

Home | Current Version | Previous Version | Text Only | Print | Product List | Glossary Off
Versions: 1 2 3 4 5 6 7 8 9 10 11 12 13 14 15 16 17 18 19 20 21 22 23 24 25 26 27 28 29 30 31 32 33 34 35 36 37 38 39 40 41 42 43 44 45 46 47 48 49 50

000
ASUS43 KIND 300809
RWRIN

WEATHER ROUNDUP FOR INDIANA
NATIONAL WEATHER SERVICE INDIANAPOLIS IN
400 AM EDT SAT AUG 30 2014

NOTE: "FAIR" INDICATES FEW OR NO CLOUDS BELOW 12,000 FEET WITH NO
SIGNIFICANT WEATHER AND/OR OBSTRUCTIONS TO VISIBILITY.

* - STATION DOES NOT REPORT WEATHER SUCH AS PRECIPITATION OR FOG.

+ - STATION NOT QUALITY CONTROLLED BY THE NATIONAL WEATHER SERVICE.
    USE DATA WITH CAUTION...ESPECIALLY DEWPOINT AND RELATIVE
    HUMIDITY OBSERVATIONS.

INZ001>003-010>013-019-020-300900-
NORTHWEST INDIANA

CITY           SKY/WX    TMP DP  RH WIND       PRES   REMARKS
GARY /AIRPORT/ MOCLDY    76  69  78 S8        29.86F
KNOX *+        PTCLDY    72  67  85 S9        29.90S
LA PORTE +     PTCLDY    71  69  95 S6        29.91S
MICHIGAN CITY+ PTCLDY    72  68  88 S8        29.88F
MONTICELLO +   PTCLDY    72  68  86 S8        29.92F
RENSSELAER +   PTCLDY    72  70  94 S9        29.91S
VALPARAISO     PTCLDY    72  68  87 S7        29.90F

$$

LMZ046-743>745-300900-
SOUTHERN LAKE MICHIGAN

STATION/POSITION TIME  TEMP WIND        PRES
                       AIR  DIR/SP/G
                 (UTC) (F)  (DEG/KT/KT) (MB)
MICHIGAN CITY    0800   74  150/ 14/ 20   N/A

$$

INZ004-005-014>016-021>024-300900-
NORTH CENTRAL INDIANA

CITY           SKY/WX    TMP DP  RH WIND       PRES   REMARKS
GOSHEN         CLEAR     75  66  73 S10       29.93F
LOGANSPORT +   PTCLDY    70  63  78 S8        29.95S
PERU/GRISSOM   CLEAR     72  69  91 S9        29.95F
ROCHESTER +    CLEAR     73  68  83 S9        29.94S
SOUTH BEND     PTCLDY    73  68  84 S10       29.91F
WARSAW +       CLEAR     72  66  83 S3        29.94F

$$

INZ006>009-017-018-025>027-300900-
NORTHEAST INDIANA

CITY           SKY/WX    TMP DP  RH WIND       PRES   REMARKS
ANGOLA *+      CLEAR     70  61  73 S6        29.96F
AUBURN +       CLEAR     72  63  73 CALM      29.98S
FORT WAYNE     PTCLDY    69  66  90 S8        29.97F
HUNTINGTON +   CLEAR     71  66  85 S5        29.97S

$$

INZ028-029-035-036-043>045-051>053-300900-
WEST CENTRAL INDIANA

CITY           SKY/WX    TMP DP  RH WIND       PRES   REMARKS
GREENCASTLE +  PTCLDY    70  66  88 S3        29.98S
LAFAYETTE      MOCLDY    72  67  84 S7        29.92F
TERRE HAUTE    MOCLDY    74  67  78 S10       29.96S

$$

INZ030>032-037>040-046>048-054>057-064-065-300900-
CENTRAL INDIANA

CITY           SKY/WX    TMP DP  RH WIND       PRES   REMARKS
CP ATTERBURY + CLEAR     68  63  83 CALM      30.00S
FRANKFORT +    PTCLDY    72  72 100 S3        29.97S
INDIANAPOLIS   MOCLDY    72  63  73 S7        29.97S
-EAGLE CREEK   CLEAR     71  63  75 MISG      29.97F
KOKOMO *+      CLEAR     70  64  83 S9        29.96F
MARION +       CLEAR     70  63  79 S6        29.98S
MT COMFORT *+  CLEAR     68  68 100 S3        30.00S
SHELBYVILLE    CLEAR     71  63  75 S8        29.99F
ZIONSVILLE +   CLEAR     72  63  74 S6        29.98F

$$

INZ033-034-041-042-049-050-058-059-300900-
EAST CENTRAL INDIANA

CITY           SKY/WX    TMP DP  RH WIND       PRES   REMARKS
MUNCIE         CLEAR     74  62  66 S8        29.99F

$$

INZ060-061-067>069-081>083-085>088-300900-
SOUTHWEST INDIANA

CITY           SKY/WX    TMP DP  RH WIND       PRES   REMARKS
EVANSVILLE     PTCLDY    76  66  71 SW7       29.99S
WASHINGTON +   MOCLDY    73  67  83 S6        29.98R

$$

INZ062-063-066-070>080-084-089>092-300900-
SOUTH CENTRAL AND SOUTHEAST INDIANA

CITY           SKY/WX    TMP DP  RH WIND       PRES   REMARKS
BEDFORD +      MOCLDY    72  61  68 S3        30.00
BLOOMINGTON    MOCLDY    72  64  76 SE8       29.99S
SEYMOUR +      CLEAR     70  57  64 SE6       30.00

$$



USA.gov is the U.S. government's official web portal to all federal, state and local government web resources and services.